timestamp,wind_dir_avg,wind_spd_avg,wind_spd_max_dir,wind_spd_gust,battery_voltage,lat,long
2022-11-02 00:04:00+00:00,176.0,5.61,177.0,6.35,12.49,47.59359,-54.27349
2022-11-02 00:14:00+00:00,173.0,6.27,165.0,7.06,12.49,47.59359,-54.27349
2022-11-02 00:24:00+00:00,171.0,6.69,172.0,7.7,12.49,47.59359,-54.27349
2022-11-02 00:34:00+00:00,176.0,6.36,181.0,7.22,12.49,47.59359,-54.27349
2022-11-02 00:44:00+00:00,183.0,6.97,180.0,8.36,12.49,47.59359,-54.27349
2022-11-02 00:54:00+00:00,181.0,5.96,187.0,6.67,12.49,47.59359,-54.27349
2022-11-02 01:04:00+00:00,193.0,5.78,198.0,6.55,12.49,47.59359,-54.27349
2022-11-02 01:14:00+00:00,182.0,6.21,176.0,7.24,12.41,47.59359,-54.27349
2022-11-02 01:24:00+00:00,176.0,6.0,177.0,6.38,12.41,47.59359,-54.27349
2022-11-02 01:34:00+00:00,175.0,4.42,174.0,5.31,12.41,47.59359,-54.27349
2022-11-02 01:44:00+00:00,168.0,5.63,172.0,6.3,12.41,47.59359,-54.27349
2022-11-02 01:54:00+00:00,185.0,5.75,190.0,6.39,12.41,47.59359,-54.27349
2022-11-02 02:04:00+00:00,172.0,5.52,163.0,6.17,12.41,47.59359,-54.27349
2022-11-02 02:14:00+00:00,176.0,6.02,177.0,6.58,12.41,47.59359,-54.27349
2022-11-02 02:24:00+00:00,167.0,6.14,168.0,6.69,12.41,47.59359,-54.27349
2022-11-02 02:34:00+00:00,183.0,5.34,191.0,6.05,12.41,47.59359,-54.27349
2022-11-02 02:44:00+00:00,178.0,6.83,176.0,7.81,12.41,47.59359,-54.27349
2022-11-02 02:54:00+00:00,180.0,6.03,178.0,6.62,12.41,47.59359,-54.27349
2022-11-02 03:04:00+00:00,180.0,5.62,177.0,6.41,12.41,47.59359,-54.27349
2022-11-02 03:14:00+00:00,160.0,4.14,161.0,4.84,12.41,47.59359,-54.27349
2022-11-02 03:24:00+00:00,178.0,5.51,172.0,6.09,12.41,47.59359,-54.27349
2022-11-02 03:34:00+00:00,178.0,7.23,184.0,8.42,12.41,47.59359,-54.27349
2022-11-02 03:44:00+00:00,184.0,8.81,187.0,9.71,12.41,47.59359,-54.27349
2022-11-02 03:54:00+00:00,183.0,9.17,181.0,10.09,12.41,47.59359,-54.27349
2022-11-02 04:04:00+00:00,181.0,9.62,189.0,10.73,12.41,47.59359,-54.27349
2022-11-02 04:14:00+00:00,178.0,8.63,181.0,9.36,12.41,47.59359,-54.27349
2022-11-02 04:24:00+00:00,176.0,9.65,177.0,10.46,12.41,47.59359,-54.27349
2022-11-02 04:34:00+00:00,169.0,8.03,169.0,9.16,12.41,47.59359,-54.27349
2022-11-02 04:44:00+00:00,172.0,7.7,174.0,8.56,12.41,47.59359,-54.27349
2022-11-02 04:54:00+00:00,170.0,7.43,168.0,8.35,12.41,47.59359,-54.27349
2022-11-02 05:04:00+00:00,163.0,7.84,159.0,8.69,12.41,47.59359,-54.27349
2022-11-02 05:14:01+00:00,159.0,7.1,161.0,7.82,12.41,47.59359,-54.27349
2022-11-02 05:24:01+00:00,171.0,7.52,175.0,8.19,12.41,47.59359,-54.27349
2022-11-02 05:34:01+00:00,176.0,7.58,175.0,8.91,12.41,47.59359,-54.27349
2022-11-02 05:44:01+00:00,172.0,8.39,172.0,9.16,12.41,47.59359,-54.27349
2022-11-02 05:54:01+00:00,181.0,8.39,182.0,9.43,12.41,47.59359,-54.27349
2022-11-02 06:04:01+00:00,170.0,7.49,171.0,8.49,12.41,47.59359,-54.27349
2022-11-02 06:14:00+00:00,170.0,7.92,174.0,8.75,12.41,47.59359,-54.27349
2022-11-02 06:24:00+00:00,186.0,7.95,189.0,9.62,12.41,47.59359,-54.27349
2022-11-02 06:34:00+00:00,184.0,9.2,187.0,10.22,12.41,47.59359,-54.27349
2022-11-02 06:44:00+00:00,191.0,8.51,196.0,10.44,12.41,47.59359,-54.27349
2022-11-02 06:54:00+00:00,189.0,9.79,187.0,12.49,12.41,47.59359,-54.27349
2022-11-02 07:04:00+00:00,194.0,10.47,196.0,11.89,12.41,47.59359,-54.27349
2022-11-02 07:14:00+00:00,189.0,11.17,189.0,12.22,12.33,47.59359,-54.27349
2022-11-02 07:24:00+00:00,189.0,9.93,198.0,12.13,12.33,47.59359,-54.27349
2022-11-02 07:34:00+00:00,192.0,10.51,194.0,11.39,12.33,47.59359,-54.27349
2022-11-02 07:44:00+00:00,194.0,10.22,192.0,11.61,12.33,47.59359,-54.27349
2022-11-02 07:54:00+00:00,198.0,11.41,207.0,12.97,12.33,47.59359,-54.27349
2022-11-02 08:04:00+00:00,199.0,10.75,197.0,12.42,12.33,47.59359,-54.27349
2022-11-02 08:14:00+00:00,198.0,12.49,197.0,14.18,12.25,47.59359,-54.27349
2022-11-02 08:24:00+00:00,204.0,11.2,209.0,13.64,12.25,47.59359,-54.27349
2022-11-02 08:34:00+00:00,206.0,11.49,211.0,13.16,12.25,47.59359,-54.27349
2022-11-02 08:44:00+00:00,210.0,10.9,208.0,12.52,12.25,47.59359,-54.27349
2022-11-02 08:54:00+00:00,209.0,10.33,216.0,11.63,12.25,47.59359,-54.27349
2022-11-02 09:04:00+00:00,193.0,10.3,188.0,13.06,12.25,47.59359,-54.27349
2022-11-02 09:14:00+00:00,187.0,9.72,186.0,10.74,12.25,47.59359,-54.27349
2022-11-02 09:24:00+00:00,202.0,9.66,198.0,11.67,12.25,47.59359,-54.27349
2022-11-02 09:34:00+00:00,206.0,10.59,211.0,13.52,12.25,47.59359,-54.27349
2022-11-02 09:44:00+00:00,206.0,13.61,211.0,15.46,12.25,47.59359,-54.27349
2022-11-02 09:54:00+00:00,208.0,12.86,213.0,14.45,12.25,47.59359,-54.27349
2022-11-02 10:04:00+00:00,206.0,12.83,197.0,14.8,12.25,47.59359,-54.27349
2022-11-02 10:14:01+00:00,211.0,13.29,210.0,15.3,12.25,47.59359,-54.27349
2022-11-02 10:24:01+00:00,203.0,13.61,199.0,15.96,12.25,47.59359,-54.27349
2022-11-02 10:34:01+00:00,201.0,12.84,207.0,15.37,12.25,47.59359,-54.27349
2022-11-02 10:44:01+00:00,203.0,13.93,211.0,15.55,12.25,47.59359,-54.27349
2022-11-02 10:54:01+00:00,206.0,14.9,203.0,17.56,12.25,47.59359,-54.27349
2022-11-02 11:04:01+00:00,208.0,14.55,207.0,16.86,12.25,47.59359,-54.27349
2022-11-02 11:14:00+00:00,204.0,13.26,214.0,15.68,12.25,47.59359,-54.27349
2022-11-02 11:24:00+00:00,199.0,13.17,194.0,15.5,12.25,47.59359,-54.27349
2022-11-02 11:34:00+00:00,196.0,12.32,193.0,14.78,12.25,47.59359,-54.27349
2022-11-02 11:44:00+00:00,200.0,17.82,200.0,20.6,12.25,47.59359,-54.27349
2022-11-02 11:54:00+00:00,207.0,16.26,207.0,20.44,12.25,47.59359,-54.27349
2022-11-02 12:04:00+00:00,213.0,17.17,213.0,20.52,12.25,47.59359,-54.27349
2022-11-02 12:14:00+00:00,215.0,16.36,211.0,20.0,12.25,47.59359,-54.27349
2022-11-02 12:24:00+00:00,212.0,16.51,216.0,18.84,12.25,47.59359,-54.27349
2022-11-02 12:34:00+00:00,210.0,13.41,209.0,17.07,12.25,47.59359,-54.27349
2022-11-02 12:44:00+00:00,203.0,15.59,208.0,18.98,12.25,47.59359,-54.27349
2022-11-02 12:54:00+00:00,210.0,15.05,207.0,18.69,12.25,47.59359,-54.27349
2022-11-02 13:04:00+00:00,211.0,15.36,214.0,19.63,12.25,47.59359,-54.27349
2022-11-02 13:14:00+00:00,216.0,17.5,211.0,19.98,12.25,47.59359,-54.27349
2022-11-02 13:24:00+00:00,210.0,18.64,212.0,21.98,12.25,47.59359,-54.27349
2022-11-02 13:34:00+00:00,211.0,17.14,213.0,20.13,12.25,47.59359,-54.27349
2022-11-02 13:44:00+00:00,214.0,17.25,215.0,20.0,12.25,47.59359,-54.27349
2022-11-02 13:54:00+00:00,214.0,20.11,214.0,23.54,12.25,47.59359,-54.27349
2022-11-02 14:04:00+00:00,216.0,18.11,216.0,19.99,12.25,47.59359,-54.27349
2022-11-02 14:14:00+00:00,217.0,17.55,215.0,19.46,12.57,47.59359,-54.27349
2022-11-02 14:24:00+00:00,216.0,15.12,213.0,18.78,12.57,47.59359,-54.27349
2022-11-02 14:34:00+00:00,220.0,15.49,216.0,18.4,12.57,47.59359,-54.27349
2022-11-02 14:44:00+00:00,220.0,13.71,218.0,15.79,12.57,47.59359,-54.27349
2022-11-02 14:54:00+00:00,227.0,14.0,227.0,16.49,12.57,47.59359,-54.27349
2022-11-02 15:04:00+00:00,227.0,10.91,233.0,12.26,12.57,47.59359,-54.27349
2022-11-02 15:14:01+00:00,230.0,11.33,236.0,13.4,12.73,47.59359,-54.27349
2022-11-02 15:24:01+00:00,228.0,9.99,232.0,12.37,12.73,47.59359,-54.27349
2022-11-02 15:34:01+00:00,231.0,9.55,231.0,10.8,12.73,47.59359,-54.27349
2022-11-02 15:44:01+00:00,230.0,9.83,232.0,11.62,12.73,47.59359,-54.27349
2022-11-02 15:54:01+00:00,233.0,9.55,241.0,11.16,12.73,47.59359,-54.27349
2022-11-02 16:04:01+00:00,244.0,10.65,247.0,11.57,12.73,47.59359,-54.27349
2022-11-02 16:14:01+00:00,245.0,9.19,247.0,10.67,13.76,47.59359,-54.27349
2022-11-02 16:24:01+00:00,243.0,8.45,243.0,9.4,13.76,47.59359,-54.27349
2022-11-02 16:34:01+00:00,251.0,8.49,250.0,9.36,13.76,47.59359,-54.27349
2022-11-02 16:44:01+00:00,251.0,8.55,249.0,11.58,13.76,47.59359,-54.27349
2022-11-02 16:54:01+00:00,248.0,8.87,244.0,10.18,13.76,47.59359,-54.27349
2022-11-02 17:04:01+00:00,242.0,10.86,247.0,12.36,13.76,47.59359,-54.27349
2022-11-02 17:14:01+00:00,245.0,10.09,248.0,11.83,13.6,47.59359,-54.27349
2022-11-02 17:24:01+00:00,259.0,11.31,261.0,12.7,13.6,47.59359,-54.27349
2022-11-02 17:34:01+00:00,259.0,10.85,251.0,13.71,13.6,47.59359,-54.27349
2022-11-02 17:44:01+00:00,257.0,11.36,255.0,13.51,13.6,47.59359,-54.27349
2022-11-02 17:54:01+00:00,255.0,12.02,252.0,13.72,13.6,47.59359,-54.27349
2022-11-02 18:04:01+00:00,262.0,10.12,258.0,12.13,13.6,47.59359,-54.27349
2022-11-02 18:14:01+00:00,264.0,12.09,262.0,14.99,14.32,47.59359,-54.27349
2022-11-02 18:24:01+00:00,266.0,12.89,266.0,15.36,14.32,47.59359,-54.27349
2022-11-02 18:34:01+00:00,266.0,11.54,265.0,13.36,14.32,47.59359,-54.27349
2022-11-02 18:44:01+00:00,266.0,12.59,266.0,13.58,14.32,47.59359,-54.27349
2022-11-02 18:54:01+00:00,275.0,11.2,274.0,12.34,14.32,47.59359,-54.27349
2022-11-02 19:04:01+00:00,287.0,12.21,289.0,14.03,14.32,47.59359,-54.27349
2022-11-02 19:14:00+00:00,287.0,13.08,296.0,14.81,13.29,47.59359,-54.27349
2022-11-02 19:24:00+00:00,294.0,10.14,298.0,11.77,13.29,47.59359,-54.27349
2022-11-02 19:34:00+00:00,298.0,8.91,292.0,11.1,13.29,47.59359,-54.27349
2022-11-02 19:44:00+00:00,291.0,8.91,296.0,10.86,13.29,47.59359,-54.27349
2022-11-02 19:54:00+00:00,291.0,10.75,292.0,11.8,13.29,47.59359,-54.27349
2022-11-02 20:04:00+00:00,284.0,11.26,285.0,13.01,13.29,47.59359,-54.27349
2022-11-02 20:14:00+00:00,298.0,11.82,301.0,14.68,13.21,47.59359,-54.27349
2022-11-02 20:24:00+00:00,312.0,15.64,313.0,18.22,13.21,47.59359,-54.27349
2022-11-02 20:34:00+00:00,306.0,12.77,310.0,15.94,13.21,47.59359,-54.27349
2022-11-02 20:44:00+00:00,292.0,11.78,288.0,13.17,13.21,47.59359,-54.27349
2022-11-02 20:54:00+00:00,299.0,10.82,295.0,12.13,13.21,47.59359,-54.27349
2022-11-02 21:04:00+00:00,291.0,10.5,293.0,12.94,13.21,47.59359,-54.27349
2022-11-02 21:14:01+00:00,300.0,9.15,298.0,10.86,12.65,47.59359,-54.27349
2022-11-02 21:24:01+00:00,302.0,11.02,306.0,12.75,12.65,47.59359,-54.27349
2022-11-02 21:34:01+00:00,301.0,11.16,303.0,13.54,12.65,47.59359,-54.27349
2022-11-02 21:44:01+00:00,296.0,10.41,294.0,14.51,12.65,47.59359,-54.27349
2022-11-02 21:54:01+00:00,294.0,9.71,289.0,11.92,12.65,47.59359,-54.27349
2022-11-02 22:04:01+00:00,298.0,11.23,299.0,13.91,12.65,47.59359,-54.27349
2022-11-02 22:14:00+00:00,298.0,10.3,291.0,12.53,12.49,47.59359,-54.27349
2022-11-02 22:24:00+00:00,307.0,9.36,302.0,10.93,12.49,47.59359,-54.27349
2022-11-02 22:34:00+00:00,303.0,9.14,308.0,11.22,12.49,47.59359,-54.27349
2022-11-02 22:44:00+00:00,311.0,9.87,316.0,11.37,12.49,47.59359,-54.27349
2022-11-02 22:54:00+00:00,313.0,10.53,306.0,12.5,12.49,47.59359,-54.27349
2022-11-02 23:04:00+00:00,332.0,13.12,332.0,15.62,12.49,47.59359,-54.27349
2022-11-02 23:14:01+00:00,316.0,10.36,318.0,12.04,12.49,47.59359,-54.27349
2022-11-02 23:24:01+00:00,308.0,9.97,294.0,15.42,12.49,47.59359,-54.27349
2022-11-02 23:34:01+00:00,319.0,10.64,303.0,16.64,12.49,47.59359,-54.27349
2022-11-02 23:44:01+00:00,318.0,11.85,309.0,16.88,12.49,47.59359,-54.27349
2022-11-02 23:54:01+00:00,324.0,12.33,315.0,17.04,12.49,47.59359,-54.27349
